Forside
METAR-TAF:

METAR-TAF

Lufthavne :

Davenport Municipal Airport

Davenport, Iowa, USA

Breddekreds: 41-36-50N, længdekreds: 090-35-29W, højde: 229 m

Aktuelle vejr

Denne rapport blev lavet for 29 minutter siden, kl. 00:52 UTC
Vind 7 kt fra nordnordvest
Temperatur 17°C
Fugtighed 48%
Tryk 1014 hPa
Sigt: 16.1 km
Spredte skyer i en højde af 8000 ft

METAR: KDVN 220052Z AUTO 33007KT 10SM SCT080 17/06 A2994 RMK AO2 SLP134 T01720061

Tid: 20:21 (01:21 UTC)


TAF: fraværende

Vejrobservationer og prognoser fra mere end 4000 lufthavne (METAR og TAF).

De gule og røde prikker repræsenterer de meteorologiske stationer.

Flyt musen over at se navnet på stationen.

Så klik over at se vejr observationer og prognoser.

At skifte det kort: Klik på de grønne knapper med et sort kors for at zoome ind; på den grønne knap med en bindestreg for at zoome ud; eller på de grønne pile for tilstødende kort.


METAR-TAF: